[[{"header":{"parameterUnit":"m.s-1","parameterCategory":1,"la1":30.2991,"la2":30.254,"lo1":-89.0895,"lo2":-89.0444,"dx":0.0017,"dy":0.0017,"nx":28,"ny":28,"refTime":"2023-01-14T03:00:00:Z","depth":0,"parameterNumber":2,"parameterNumberName":"U-component_of_WINDS"},"data":[0,0,0,0,0,0,0,0,0,0,0,0,0,0,0,0,0,0,0,0,0,0,0,0,0,0,0,0,0,0,0,0,0,0,0,0,0,0,0,0,0,0,0,0,0,0,0,0,0,0,0,0,0,0,0,0,0,0,2.2399,2.24,0,2.2444,2.2445,2.2445,2.2439,2.2438,2.2438,2.2437,2.2482,2.2484,2.2486,0,0,0,0,0,0,0,0,0,0,0,0,0,2.2308,2.231,2.2399,2.24,2.24,2.2444,2.2445,2.2445,2.2439,2.2438,2.2437,2.2437,2.2481,2.2483,2.2486,0,0,0,0,0,0,0,0,0,0,0,0,0,2.235,2.231,2.2399,2.2402,2.2403,2.2444,2.2445,2.2445,2.2439,2.2438,2.2437,2.2436,2.248,2.2483,2.2486,2.2526,0,0,2.2495,2.2496,0,0,0,0,0,0,0,0,2.2347,2.2353,2.2401,2.2402,2.2403,2.2435,2.2429,2.2472,2.244,2.2426,2.2437,2.2436,2.2467,2.2471,2.2482,2.2528,2.253,2.2495,2.2497,2.2498,2.2499,0,0,0,0,0,0,0,2.2344,2.2351,2.2417,2.2402,2.2403,2.2402,2.2407,2.2437,2.2452,2.2427,2.2426,2.2432,2.2467,2.2479,2.2483,2.253,2.2495,2.2497,2.2499,2.25,2.2613,2.2614,0,0,0,0,0,0,2.2341,2.2349,2.2415,2.2418,2.2372,2.2404,2.241,2.2426,2.2452,2.2455,2.2433,2.2432,2.2475,2.2479,2.2484,2.2533,2.2498,2.25,2.2502,2.2611,2.2613,2.2614,0,0,0,0,0,0,2.2339,2.2347,2.2414,2.2383,2.2392,2.2407,2.2425,2.2427,2.2439,2.2456,2.2459,2.2442,2.2474,2.248,2.2516,2.2535,2.2502,2.2504,2.261,2.2612,2.2614,2.263,0,0,0,0,0,0,2.2336,2.2346,2.2361,2.2384,2.2393,2.2444,2.2427,2.2429,2.2444,2.2443,2.2466,2.2468,2.2474,2.2512,2.2519,2.2538,2.2506,2.2608,2.2611,2.2613,2.2628,2.2633,2.2637,0,0,0,0,0,2.2333,2.2363,2.2362,2.237,2.2412,2.2445,2.2451,2.2457,2.2446,2.2461,2.2472,2.2468,2.2532,2.2515,2.2523,2.2543,2.2607,2.261,2.2613,2.2626,2.2632,2.2636,0,0,0,0,0,0,2.2341,2.2366,2.2365,2.2403,2.2422,2.2444,2.2463,2.2462,2.2484,2.2482,2.2488,2.2493,2.253,2.254,2.2522,2.2584,2.2568,2.2573,2.2575,2.2581,2.2585,2.2581,2.2509,0,0,0,0,0,2.2348,2.2372,2.2393,2.2425,2.2435,2.2448,2.2462,2.2465,2.2485,2.2493,2.2507,2.2526,2.2551,2.2566,2.259,2.263,2.2636,2.2648,2.2653,2.2656,2.2659,2.2683,2.2689,2.2624,2.2624,2.2624,0,0,2.2361,2.2378,2.2393,2.2427,2.2442,2.2468,2.2454,2.2481,2.2501,2.2497,2.2531,2.2543,2.2564,2.2603,2.2621,2.2613,2.2679,2.266,2.2662,2.2664,2.2687,2.2693,2.2698,2.2626,2.2626,2.2625,0,0,2.2398,2.2413,2.2442,2.2458,2.2481,2.249,2.2497,2.252,2.2528,2.2563,2.2561,2.2584,2.2626,2.2642,2.2655,2.2702,2.2698,2.2709,2.273,2.2753,2.2758,2.2763,2.2779,2.2785,2.2713,2.2713,2.2713,0,2.2411,2.245,2.2457,2.2485,2.2501,2.25,2.2529,2.2544,2.2574,2.2585,2.2576,2.263,2.2645,2.2688,2.2699,2.271,2.2719,2.2706,2.2757,2.2762,2.2766,2.2782,2.2788,2.2714,2.2714,2.2714,2.2714,0,2.2465,2.2492,2.2513,2.2543,2.2561,2.2589,2.2601,2.2619,2.2621,2.2631,2.2668,2.2686,2.2713,2.2724,2.2726,2.2768,2.2763,2.2755,2.2739,2.2773,2.2788,2.2795,2.2716,2.2715,2.2715,2.2715,0,0,2.2506,2.2542,2.2549,2.2563,2.259,2.2611,2.2641,2.2669,2.2684,2.2705,2.273,2.2767,2.2761,2.2777,2.2781,2.2801,2.2838,2.2792,2.2793,2.28,2.2885,2.289,2.2897,2.2836,2.2837,2.2838,2.2884,0,2.2546,2.2598,2.2607,2.2652,2.2678,2.2679,2.2704,2.2724,2.2735,2.2758,2.277,2.2796,2.2786,2.2796,2.2816,2.2829,2.2855,2.2826,2.2859,2.286,2.2853,2.2905,2.291,2.2951,2.289,2.2891,2.2891,0,2.2599,2.2623,2.2671,2.2696,2.2707,2.273,2.2757,2.278,2.2803,2.2809,2.2828,2.283,2.2861,2.2845,2.2888,2.2869,2.2883,2.2892,2.2894,2.2896,2.2877,2.2909,2.2965,2.2971,2.2901,2.29,2.2899,0,2.2624,2.2668,2.2703,2.2716,2.2746,2.2762,2.2775,2.2797,2.2814,2.2838,2.2849,2.2877,2.2891,2.2913,2.2923,2.291,2.2966,2.295,2.2972,2.2972,2.2983,2.2982,2.3041,2.2993,2.2993,2.2993,2.2993,0,2.2667,2.2697,2.2716,2.2737,2.2771,2.2781,2.2814,2.2827,2.2847,2.2871,2.2874,2.2897,2.2909,2.2934,2.2942,2.2977,2.2984,2.299,2.2992,2.299,2.2989,2.2998,2.2996,2.2995,2.2994,2.2994,2.2994,0,2.27,2.2714,2.2753,2.2779,2.2786,2.281,2.2832,2.2854,2.2865,2.2896,2.2904,2.2922,2.2952,2.2965,2.3001,2.3006,2.3047,2.3046,2.3039,2.3039,2.3061,2.3059,2.3128,2.3138,2.3084,2.3084,2.3085,0,2.2726,2.275,2.2779,2.2796,2.281,2.2837,2.2854,2.2866,2.2884,2.2914,2.2931,2.2961,2.2986,2.3033,2.305,2.3078,2.3078,2.3101,2.3082,2.308,2.3079,2.3077,2.308,2.3104,2.3104,2.3105,2.3105,0,2.2771,2.2778,2.2803,2.2832,2.2853,2.2876,2.2898,2.2912,2.2927,2.2948,2.2979,2.2998,2.3036,2.3066,2.3096,2.311,2.311,2.3111,2.3118,2.3115,2.311,2.3113,2.3048,2.3109,2.3109,2.3109,2.3108,2.3108,2.2802,2.2823,2.2847,2.2876,2.2895,2.2916,2.2938,2.2953,2.2979,2.3011,2.3016,2.3049,2.3074,2.3114,2.3129,2.3156,2.315,2.3159,2.3162,2.3164,2.3165,2.3107,2.3161,2.3161,2.3161,2.3161,2.3161,0,2.2847,2.2863,2.289,2.2922,2.2945,2.2945,2.297,2.2989,2.3018,2.3041,2.3066,2.3102,2.3132,2.3151,2.3182,2.3199,2.32,2.3207,2.3205,2.3208,2.3168,2.316,2.3205,2.3205,2.3205,2.3205,2.3205,2.3205,2.2873,2.2909,2.2918,2.2964,2.298,2.3013,2.3027,2.3047,2.3066,2.3106,2.3131,2.3144,2.3166,2.3199,2.3226,2.3231,2.3242,2.3249,2.3254,2.3216,2.3211,2.3207,2.3198,2.3251,2.3251,2.3291,2.3292,2.3292]},{"header":{"parameterUnit":"m.s-1","parameterCategory":1,"la1":30.2991,"la2":30.254,"lo1":-89.0895,"lo2":-89.0444,"dx":0.0017,"dy":0.0017,"nx":28,"ny":28,"refTime":"2023-01-14T03:00:00:Z","depth":0,"parameterNumber":3,"parameterNumberName":"V-component_of_WINDS"},"data":[0,0,0,0,0,0,0,0,0,0,0,0,0,0,0,0,0,0,0,0,0,0,0,0,0,0,0,0,0,0,0,0,0,0,0,0,0,0,0,0,0,0,0,0,0,0,0,0,0,0,0,0,0,0,0,0,0,0,-8.031,-8.0312,0,-8.048,-8.0482,-8.0484,-8.0406,-8.0401,-8.0397,-8.0393,-8.0561,-8.057,-8.0578,0,0,0,0,0,0,0,0,0,0,0,0,0,-7.9914,-7.9922,-8.031,-8.0312,-8.0314,-8.048,-8.0482,-8.0484,-8.0406,-8.0401,-8.0396,-8.0391,-8.0559,-8.0569,-8.0579,0,0,0,0,0,0,0,0,0,0,0,0,0,-8.0085,-7.9924,-8.031,-8.0296,-8.0296,-8.0479,-8.0482,-8.0485,-8.0407,-8.0401,-8.0395,-8.0389,-8.0555,-8.0568,-8.058,-8.0786,0,0,-8.0619,-8.0624,0,0,0,0,0,0,0,0,-8.0075,-8.01,-8.0296,-8.0297,-8.0298,-8.0415,-8.0404,-8.0586,-8.0409,-8.0365,-8.0393,-8.0386,-8.0518,-8.0533,-8.0579,-8.0794,-8.0801,-8.062,-8.0628,-8.0633,-8.0637,0,0,0,0,0,0,0,-8.0064,-8.0092,-8.0377,-8.0298,-8.03,-8.0279,-8.0296,-8.0438,-8.0475,-8.0368,-8.0363,-8.0384,-8.0517,-8.0567,-8.0582,-8.0803,-8.062,-8.0631,-8.0639,-8.0644,-8.1196,-8.1202,0,0,0,0,0,0,-8.0053,-8.0082,-8.0372,-8.0382,-8.0169,-8.0292,-8.0311,-8.0384,-8.0473,-8.0481,-8.039,-8.038,-8.0548,-8.0567,-8.0588,-8.0835,-8.0633,-8.0645,-8.0652,-8.1189,-8.1197,-8.1205,0,0,0,0,0,0,-8.0045,-8.0079,-8.0365,-8.0231,-8.0266,-8.0305,-8.0388,-8.0391,-8.044,-8.0489,-8.0495,-8.0434,-8.0544,-8.057,-8.0738,-8.0839,-8.0651,-8.0662,-8.118,-8.1191,-8.1201,-8.133,0,0,0,0,0,0,-8.0033,-8.0077,-8.0156,-8.0234,-8.0273,-8.0514,-8.0394,-8.0398,-8.0463,-8.0452,-8.0532,-8.054,-8.0541,-8.0719,-8.075,-8.0853,-8.0672,-8.1171,-8.1185,-8.1198,-8.1317,-8.1344,-8.1367,0,0,0,0,0,-8.002,-8.0185,-8.0161,-8.0196,-8.0374,-8.052,-8.0543,-8.0542,-8.0471,-8.0551,-8.0583,-8.0537,-8.0823,-8.0737,-8.0771,-8.088,-8.1165,-8.1181,-8.1197,-8.1306,-8.1339,-8.1366,0,0,0,0,0,0,-8.0116,-8.0194,-8.0169,-8.0364,-8.0437,-8.0507,-8.0607,-8.0577,-8.0669,-8.0655,-8.0649,-8.0668,-8.0842,-8.0877,-8.078,-8.1084,-8.0983,-8.1007,-8.1054,-8.1086,-8.111,-8.1098,-8.0682,0,0,0,0,0,-8.0161,-8.0275,-8.0336,-8.0502,-8.054,-8.0568,-8.0631,-8.0625,-8.0699,-8.0728,-8.0772,-8.0844,-8.095,-8.1019,-8.112,-8.1322,-8.1338,-8.1413,-8.1438,-8.1458,-8.1479,-8.1588,-8.1623,-8.1257,-8.1257,-8.1257,0,0,-8.0253,-8.031,-8.0381,-8.0523,-8.0578,-8.0695,-8.0594,-8.0721,-8.0807,-8.0747,-8.0909,-8.0943,-8.1023,-8.1209,-8.1293,-8.1244,-8.1583,-8.1479,-8.1494,-8.1504,-8.1608,-8.1643,-8.1674,-8.1268,-8.1266,-8.1264,0,0,-8.0481,-8.0535,-8.068,-8.0738,-8.0824,-8.0841,-8.0876,-8.0952,-8.0973,-8.1136,-8.1094,-8.1195,-8.1378,-8.1436,-8.149,-8.1742,-8.1703,-8.1774,-8.1905,-8.2012,-8.204,-8.2066,-8.2156,-8.2188,-8.1794,-8.1795,-8.1795,0,-8.0584,-8.076,-8.0758,-8.089,-8.0953,-8.0906,-8.1052,-8.1108,-8.1221,-8.1265,-8.1209,-8.1439,-8.1489,-8.1688,-8.175,-8.1795,-8.1834,-8.1765,-8.2037,-8.2062,-8.2086,-8.2171,-8.2205,-8.1803,-8.1802,-8.1801,-8.18,0,-8.0883,-8.1005,-8.1112,-8.1225,-8.13,-8.1438,-8.1456,-8.1533,-8.152,-8.1543,-8.1709,-8.1768,-8.188,-8.1926,-8.1914,-8.2125,-8.2092,-8.2037,-8.1935,-8.2129,-8.2209,-8.2242,-8.1815,-8.1812,-8.1809,-8.1807,0,0,-8.1176,-8.1287,-8.1327,-8.1378,-8.1469,-8.1563,-8.1699,-8.181,-8.1875,-8.1955,-8.2068,-8.2225,-8.2175,-8.2236,-8.223,-8.2324,-8.252,-8.2257,-8.2259,-8.2304,-8.2755,-8.2796,-8.2834,-8.2495,-8.2501,-8.2506,-8.2749,0,-8.141,-8.1651,-8.1653,-8.1873,-8.1986,-8.1944,-8.2062,-8.213,-8.2156,-8.2254,-8.228,-8.2392,-8.2317,-8.2354,-8.2445,-8.2477,-8.261,-8.2459,-8.2599,-8.2604,-8.2581,-8.2876,-8.292,-8.3146,-8.278,-8.2785,-8.2789,0,-8.1716,-8.1809,-8.2041,-8.2117,-8.2164,-8.2271,-8.2373,-8.2468,-8.2544,-8.2556,-8.2626,-8.2606,-8.2743,-8.2638,-8.2826,-8.2723,-8.278,-8.2805,-8.2813,-8.2826,-8.2708,-8.2897,-8.3218,-8.3252,-8.2838,-8.2834,-8.2831,0,-8.1907,-8.2089,-8.2252,-8.2297,-8.2389,-8.2465,-8.2507,-8.2577,-8.2644,-8.2733,-8.2776,-8.2879,-8.2936,-8.3015,-8.3023,-8.2946,-8.3213,-8.3109,-8.3226,-8.3226,-8.3284,-8.328,-8.3618,-8.3321,-8.332,-8.332,-8.3319,0,-8.2169,-8.2313,-8.2339,-8.2439,-8.2598,-8.26,-8.2757,-8.2792,-8.2855,-8.296,-8.2929,-8.3027,-8.3032,-8.3133,-8.314,-8.3295,-8.332,-8.3333,-8.3333,-8.3336,-8.3335,-8.3373,-8.3358,-8.3329,-8.3327,-8.3325,-8.3323,0,-8.2409,-8.2433,-8.2607,-8.2681,-8.2703,-8.2818,-8.288,-8.2975,-8.2998,-8.3131,-8.3162,-8.3197,-8.3315,-8.3331,-8.3467,-8.3472,-8.3658,-8.3642,-8.3634,-8.3631,-8.3748,-8.3737,-8.4123,-8.4173,-8.3843,-8.3846,-8.3848,0,-8.2575,-8.2685,-8.2771,-8.2841,-8.2887,-8.2999,-8.3068,-8.3073,-8.3146,-8.3241,-8.3325,-8.3439,-8.3531,-8.3721,-8.3757,-8.3861,-8.3847,-8.3975,-8.3862,-8.3862,-8.3849,-8.3843,-8.3854,-8.3997,-8.4001,-8.4004,-8.4006,0,-8.2867,-8.2873,-8.2975,-8.3081,-8.3165,-8.3248,-8.3326,-8.3384,-8.34,-8.3483,-8.3604,-8.3675,-8.3816,-8.393,-8.4034,-8.4074,-8.4043,-8.4041,-8.4074,-8.4078,-8.4069,-8.4076,-8.3693,-8.4032,-8.403,-8.4028,-8.4026,-8.4025,-8.3075,-8.3171,-8.3247,-8.3362,-8.3422,-8.3496,-8.3589,-8.3625,-8.3726,-8.3843,-8.3839,-8.3972,-8.4045,-8.4181,-8.423,-8.4332,-8.429,-8.4337,-8.4349,-8.4361,-8.4373,-8.4053,-8.4351,-8.435,-8.435,-8.4349,-8.4348,0,-8.3365,-8.3413,-8.3518,-8.363,-8.372,-8.3684,-8.377,-8.3847,-8.3965,-8.4037,-8.4129,-8.4267,-8.4378,-8.4424,-8.4532,-8.4606,-8.4594,-8.4634,-8.4628,-8.4638,-8.4404,-8.4365,-8.4642,-8.4642,-8.4642,-8.4642,-8.4641,-8.4641,-8.3527,-8.3688,-8.3703,-8.3893,-8.3939,-8.4071,-8.4123,-8.4191,-8.4248,-8.4406,-8.4499,-8.4528,-8.459,-8.4702,-8.4802,-8.4812,-8.4854,-8.49,-8.4904,-8.4684,-8.4655,-8.4627,-8.459,-8.4909,-8.4909,-8.513,-8.5132,-8.5133]}]]